Anchorage, AK

6:26 PM AKDT on August 25, 2016 (GMT -0800)
Stevens Anchorage International

Weather History for PANC - September, 2013

Change the Weather History Date:

Tuesday, September 3, 2013

  Actual Average Record
Temperature  
Mean Temperature 57 °F -  
Max Temperature 63 °F - 70 °F (1978)
Min Temperature 51 °F - 34 °F (1953)
Degree Days  
Heating Degree Days 8    
Month to date heating degree days 27  
Since 1 July heating degree days 368  
Cooling Degree Days 0    
Month to date cooling degree days 0  
Year to date cooling degree days 21  
Growing Degree Days 8 (Base 50)    
Moisture  
Dew Point 48 °F    
Average Humidity 70    
Maximum Humidity 89    
Minimum Humidity 51    
Precipitation  
Precipitation 0.13 in - 0.65 in (1990)
Month to date precipitation 0.41  
Year to date precipitation 13.77  
Snow  
Snow 0.00 in - - ()
Month to date snowfall 0.0  
Since 1 July snowfall 0.0  
Since 1 September snowfall 0.0  
Snow Depth 0.00 in    
Sea Level Pressure  
Sea Level Pressure 29.38 in    
Wind  
Wind Speed 10 mph (South)    
Max Wind Speed 23 mph    
Max Gust Speed 45 mph    
Visibility 10 miles    
Events Rain    
T = Trace of Precipitation, MM = Missing Value Source: NWS Daily Summary

Daily Weather History Graph

Daily Weather History Graph

Search for Another Location

Airport or City:

Trip Planner

Search our weather history database for the weather conditions in past years. The results will help you decide how hot, cold, wet, or windy it might be!

Date:

Astronomy

Sep. 03, 2013 Rise Set
Actual Time 6:58 AM AKDT 8:58 PM AKDT
Civil Twilight 6:11 AM AKDT 9:44 PM AKDT
Nautical Twilight 5:11 AM AKDT 10:44 PM AKDT
Astronomical Twilight 3:52 AM AKDT 12:01 AM AKDT
Moon 5:09 AM AKDT (9/3) 7:53 PM AKDT (9/3)
Length of Visible Light 15h 33m
Length of Day
14h 00m
Waning Crescent, 3% of the Moon is Illuminated
Sep 3
Waning Crescent
Sep 5
New
Sep 12
First Quarter
Sep 19
Full
Sep 26
Last Quarter

Hourly Weather History & Observations

Time (AKDT) Temp. Dew Point Humidity Pressure Visibility Wind Dir Wind Speed Gust Speed Precip Events Conditions
12:53 AM 57.9 °F 46.9 °F 67% 29.52 in 10.0 mi ESE 5.8 mph 18.4 mph N/A   Overcast
1:53 AM 57.9 °F 45.0 °F 62% 29.51 in 10.0 mi SE 17.3 mph 28.8 mph N/A   Overcast
2:53 AM 60.1 °F 43.0 °F 53% 29.48 in 10.0 mi SE 16.1 mph 24.2 mph N/A   Overcast
3:53 AM 57.9 °F 46.0 °F 65% 29.45 in 10.0 mi SE 11.5 mph 28.8 mph 0.00 in Rain Light Rain
4:53 AM 54.0 °F 50.0 °F 86% 29.44 in 10.0 mi NNE 9.2 mph - 0.00 in Rain Light Rain
5:53 AM 54.0 °F 48.9 °F 83% 29.43 in 10.0 mi WSW 6.9 mph - 0.00 in   Overcast
6:35 AM 53.6 °F 48.2 °F 82% 29.40 in 10.0 mi NNE 5.8 mph - N/A   Overcast
6:53 AM 53.1 °F 48.9 °F 86% 29.39 in 10.0 mi WNW 4.6 mph - N/A   Overcast
7:53 AM 53.1 °F 48.9 °F 86% 29.37 in 10.0 mi WNW 3.5 mph - N/A   Mostly Cloudy
8:53 AM 53.1 °F 48.9 °F 86% 29.33 in 10.0 mi West 4.6 mph - N/A   Mostly Cloudy
9:53 AM 54.0 °F 50.0 °F 86% 29.31 in 10.0 mi WNW 8.1 mph - 0.00 in   Mostly Cloudy
10:53 AM 55.9 °F 50.0 °F 80% 29.30 in 10.0 mi Variable 3.5 mph - N/A   Mostly Cloudy
11:53 AM 62.1 °F 51.1 °F 67% 29.29 in 10.0 mi Calm Calm - N/A   Mostly Cloudy
12:53 PM 64.0 °F 48.9 °F 58% 29.28 in 10.0 mi SSE 23.0 mph 41.4 mph N/A   Mostly Cloudy
1:53 PM 64.0 °F 48.0 °F 56% 29.30 in 10.0 mi SE 21.9 mph 31.1 mph N/A   Mostly Cloudy
2:08 PM 60.8 °F 50.0 °F 68% 29.31 in 10.0 mi SW 15.0 mph 24.2 mph N/A   Mostly Cloudy
2:53 PM 54.0 °F 48.9 °F 83% 29.37 in 10.0 mi WSW 17.3 mph 21.9 mph 0.04 in Rain Rain
3:53 PM 54.0 °F 48.9 °F 83% 29.37 in 5.0 mi WSW 8.1 mph - 0.11 in Rain Rain
4:12 PM 53.6 °F 48.2 °F 82% 29.37 in 10.0 mi SSW 4.6 mph - 0.00 in   Overcast
4:30 PM 55.4 °F 50.0 °F 82% 29.38 in 10.0 mi ESE 4.6 mph - 0.00 in   Mostly Cloudy
4:53 PM 55.9 °F 50.0 °F 80% 29.38 in 10.0 mi Calm Calm - 0.00 in   Mostly Cloudy
5:53 PM 61.0 °F 50.0 °F 67% 29.38 in 10.0 mi SSE 5.8 mph - N/A   Mostly Cloudy
6:53 PM 61.0 °F 45.0 °F 56% 29.38 in 10.0 mi ESE 11.5 mph 18.4 mph N/A   Mostly Cloudy
7:53 PM 60.1 °F 43.0 °F 53% 29.39 in 10.0 mi SE 9.2 mph - N/A   Mostly Cloudy
8:53 PM 55.9 °F 45.0 °F 67% 29.40 in 10.0 mi WNW 3.5 mph - N/A   Mostly Cloudy
9:53 PM 55.0 °F 46.0 °F 72% 29.40 in 10.0 mi Calm Calm - 0.00 in Rain Light Rain
10:53 PM 57.9 °F 44.1 °F 60% 29.41 in 10.0 mi SSE 15.0 mph 27.6 mph 0.00 in   Overcast
11:53 PM 57.9 °F 44.1 °F 60% 29.41 in 10.0 mi SSE 17.3 mph 26.5 mph N/A   Overcast